Change the Weather History Date:

Sunday, September 16, 2012

  Actual Average Record
Temperature  
Mean Temperature 79 °F 79 °F  
Max Temperature 86 °F 88 °F 94 °F (1996)
Min Temperature 71 °F 70 °F 62 °F (2009)
Degree Days  
Heating Degree Days 0 0  
Month to date heating degree days 12 0  
Since 1 July heating degree days 12 0  
Cooling Degree Days 14 14  
Month to date cooling degree days 209 226  
Year to date cooling degree days 2755 2768  
Growing Degree Days 28 (Base 50)    
Moisture  
Dew Point 65 °F    
Average Humidity 68    
Maximum Humidity 84    
Minimum Humidity 51    
Precipitation  
Precipitation 0.00 in 0.01 in 0.33 in (1963)
Month to date precipitation 0.08 0.18  
Year to date precipitation 4.41 10.88  
Snow  
Snow 0.00 in - - ()
Month to date snowfall 0.0  
Since 1 July snowfall 0.0  
Since 1 September snowfall 0.0  
Snow Depth 0.00 in    
Sea Level Pressure  
Sea Level Pressure 30.05 in    
Wind  
Wind Speed 14 mph (NE)    
Max Wind Speed 25 mph    
Max Gust Speed 31 mph    
Visibility 10 miles    
Events      
T = Trace of Precipitation, MM = Missing Value Source: NWS Daily Summary

Daily Weather History Graph

Daily Weather History Graph

Search for Another Location

Airport or City:

Trip Planner

Search our weather history database for the weather conditions in past years. The results will help you decide how hot, cold, wet, or windy it might be!

Date:

Astronomy

Sep. 16, 2012 Rise Set
Actual Time 6:13 AM HST 6:26 PM HST
Civil Twilight 5:51 AM HST 6:49 PM HST
Nautical Twilight 5:25 AM HST 7:14 PM HST
Astronomical Twilight 4:59 AM HST 7:40 PM HST
Moon 6:51 AM HST (9/16) 6:57 PM HST (9/16)
Length of Visible Light 12h 58m
Length of Day
12h 13m
New Moon, 1% of the Moon is Illuminated
Sep 16
New Moon
Sep 22
First Quarter
Sep 29
Full
Oct 7
Last Quarter
Oct 15
New

Hourly Weather History & Observations

Time (HST) Temp. Heat Index Dew Point Humidity Pressure Visibility Wind Dir Wind Speed Gust Speed Precip Events Conditions
12:54 AM 73.9 °F - 64.0 °F 71% 30.06 in 10.0 mi ENE 6.9 mph - N/A   Overcast
1:54 AM 75.0 °F - 66.0 °F 73% 30.05 in 10.0 mi NE 12.7 mph - N/A   Overcast
2:54 AM 72.0 °F - 66.9 °F 84% 30.04 in 10.0 mi NE 5.8 mph - N/A   Scattered Clouds
3:54 AM 73.0 °F - 64.9 °F 76% 30.04 in 10.0 mi NNE 8.1 mph - N/A   Mostly Cloudy
4:54 AM 73.0 °F - 63.0 °F 71% 30.04 in 10.0 mi NNE 6.9 mph - N/A   Overcast
5:54 AM 73.0 °F - 64.9 °F 76% 30.07 in 10.0 mi NNE 8.1 mph - N/A   Scattered Clouds
6:54 AM 73.9 °F - 64.9 °F 73% 30.08 in 10.0 mi North 10.4 mph - N/A   Scattered Clouds
7:54 AM 78.1 °F - 64.0 °F 62% 30.08 in 10.0 mi NNE 13.8 mph - N/A   Partly Cloudy
8:54 AM 78.1 °F - 64.9 °F 64% 30.08 in 10.0 mi North 9.2 mph - N/A   Scattered Clouds
9:54 AM 82.9 °F 83.7 °F 62.1 °F 49% 30.07 in 10.0 mi NE 18.4 mph - N/A   Scattered Clouds
10:54 AM 84.0 °F 86.3 °F 66.0 °F 55% 30.05 in 10.0 mi NE 20.7 mph - N/A   Scattered Clouds
11:54 AM 84.0 °F 86.5 °F 66.9 °F 56% 30.04 in 10.0 mi NE 24.2 mph - N/A   Scattered Clouds
12:54 PM 86.0 °F 88.2 °F 66.0 °F 51% 30.03 in 10.0 mi NE 20.7 mph 27.6 mph N/A   Scattered Clouds
1:54 PM 84.9 °F 87.1 °F 66.0 °F 53% 30.01 in 10.0 mi NNE 24.2 mph - N/A   Scattered Clouds
2:54 PM 84.0 °F 86.3 °F 66.0 °F 55% 30.00 in 10.0 mi NNE 23.0 mph - N/A   Scattered Clouds
3:54 PM 82.9 °F 85.0 °F 66.0 °F 56% 30.00 in 10.0 mi NNE 21.9 mph - N/A   Scattered Clouds
4:54 PM 79.0 °F - 66.9 °F 66% 30.00 in 10.0 mi NE 20.7 mph - N/A   Scattered Clouds
5:54 PM 78.1 °F - 64.9 °F 64% 30.01 in 10.0 mi NE 19.6 mph 25.3 mph N/A   Scattered Clouds
6:54 PM 75.9 °F - 66.0 °F 71% 30.04 in 10.0 mi NE 13.8 mph - N/A   Clear
7:54 PM 75.0 °F - 64.9 °F 71% 30.06 in 10.0 mi NE 13.8 mph - N/A   Clear
8:54 PM 73.9 °F - 66.0 °F 76% 30.08 in 10.0 mi NE 11.5 mph - N/A   Clear
9:54 PM 73.9 °F - 66.0 °F 76% 30.09 in 10.0 mi NE 5.8 mph - N/A   Clear
10:54 PM 73.0 °F - 66.9 °F 81% 30.08 in 10.0 mi ENE 12.7 mph - N/A   Mostly Cloudy
11:54 PM 73.0 °F - 66.9 °F 81% 30.06 in 10.0 mi NE 10.4 mph - 0.00 in   Overcast